TimeEST,TemperatureF,Dew PointF,Humidity,Sea Level PressureIn,VisibilityMPH,Wind Direction,Wind SpeedMPH,Gust SpeedMPH,PrecipitationIn,Events,Conditions,WindDirDegrees,DateUTC
12:19 AM,35.6,33.8,93,30.19,-9999.0,NNE,3.5,-,N/A,Rain,Rain,30,2013-01-16 05:19:00
1:00 AM,35.1,34.0,96,30.16,-9999.0,Variable,3.5,-,N/A,Rain,Rain,0,2013-01-16 06:00:00
1:58 AM,35.6,33.8,93,30.13,-9999.0,NE,6.9,-,N/A,Rain,Light Rain,50,2013-01-16 06:58:00
2:00 AM,35.1,33.1,92,30.13,-9999.0,NE,5.8,-,N/A,Rain,Light Rain,50,2013-01-16 07:00:00
2:24 AM,35.6,33.8,93,30.13,-9999.0,NE,4.6,-,N/A,Rain,Rain,40,2013-01-16 07:24:00
3:00 AM,35.1,34.0,96,30.12,-9999.0,NE,3.5,-,N/A,Rain,Rain,50,2013-01-16 08:00:00
4:00 AM,35.1,34.0,96,30.09,-9999.0,NNE,4.6,-,N/A,Rain,Heavy Rain,30,2013-01-16 09:00:00
5:00 AM,34.0,33.1,96,30.09,-9999.0,NNE,5.8,-,N/A,Rain,Light Rain,20,2013-01-16 10:00:00
6:00 AM,34.0,33.1,96,30.05,-9999.0,Variable,4.6,-,N/A,Rain,Light Rain,0,2013-01-16 11:00:00
7:00 AM,35.1,34.0,96,30.04,-9999.0,ENE,3.5,-,N/A,Rain,Light Rain,60,2013-01-16 12:00:00
8:00 AM,36.0,35.1,97,30.02,-9999.0,ENE,4.6,-,N/A,,Overcast,60,2013-01-16 13:00:00
8:17 AM,35.6,35.6,100,30.01,-9999.0,ENE,3.5,-,N/A,,Overcast,60,2013-01-16 13:17:00
10:00 AM,37.9,37.9,100,29.96,-9999.0,South,3.5,-,N/A,Rain,Light Rain,190,2013-01-16 15:00:00
11:00 AM,37.9,37.9,100,29.97,-9999.0,NW,3.5,-,N/A,Rain,Light Rain,310,2013-01-16 16:00:00
1:00 PM,37.9,37.9,100,29.87,-9999.0,Calm,Calm,-,N/A,,Overcast,0,2013-01-16 18:00:00
2:00 PM,39.0,39.0,100,29.80,-9999.0,South,5.8,-,N/A,,Overcast,170,2013-01-16 19:00:00
3:00 PM,37.0,37.0,100,29.89,-9999.0,Variable,3.5,16.1,N/A,,Overcast,0,2013-01-16 20:00:00
4:00 PM,36.0,35.1,97,29.91,-9999.0,NNW,4.6,-,N/A,,Overcast,340,2013-01-16 21:00:00
5:00 PM,36.0,36.0,100,29.92,-9999.0,West,4.6,-,N/A,,Overcast,260,2013-01-16 22:00:00
6:00 PM,36.0,36.0,100,29.93,-9999.0,WNW,4.6,-,N/A,,Overcast,290,2013-01-16 23:00:00
7:00 PM,37.0,36.0,96,29.94,-9999.0,West,5.8,-,N/A,,Overcast,260,2013-01-17 00:00:00
7:23 PM,37.4,35.6,93,29.93,-9999.0,SW,4.6,-,N/A,,Overcast,230,2013-01-17 00:23:00
8:00 PM,37.0,36.0,96,29.93,-9999.0,WSW,5.8,-,N/A,,Overcast,240,2013-01-17 01:00:00
9:00 PM,37.0,36.0,96,29.95,-9999.0,West,9.2,-,N/A,,Overcast,270,2013-01-17 02:00:00
10:00 PM,37.0,36.0,96,29.93,-9999.0,West,5.8,-,N/A,,Overcast,260,2013-01-17 03:00:00
10:26 PM,37.4,35.6,93,29.94,-9999.0,West,5.8,-,N/A,,Mostly Cloudy,270,2013-01-17 03:26:00
11:00 PM,37.0,36.0,96,29.95,-9999.0,West,5.8,-,N/A,,Mostly Cloudy,270,2013-01-17 04:00:00